Simultaneous Nadir Overpasses (SNOs) Predictions

Prediction of SNOs between GOES-17 and NOAA-20 Satellite Orbit:

Table of predicted SNOs for the next 14.0 days since TLE Epoch: 5/17/2019
Index Date Time (GOES-17) GOES-17 Lat,Lon NOAA-20 Lat,Lon Distance(km) Time Diff (sec)
1 05/17/2019 22:46:45 -0.00,-137.18 -0.78,-140.66 396.78 80
2 05/18/2019 22:30:40 -0.00,-137.17 0.20,-136.12 119.20 80
3 05/20/2019 10:52:27 0.00,-137.19 0.96,-141.39 479.67 80
4 05/21/2019 10:31:03 0.00,-137.17 -0.08,-136.86 35.46 80
5 05/23/2019 22:34:13 0.01,-137.12 -0.10,-137.64 59.14 80
6 05/24/2019 22:18:08 0.01,-137.10 0.89,-133.10 455.96 80
7 05/26/2019 10:39:55 -0.01,-137.11 0.29,-138.37 143.73 80
8 05/27/2019 10:18:31 -0.02,-137.09 -0.76,-133.84 370.80 80
9 05/28/2019 22:40:26 0.02,-137.03 -0.45,-139.14 240.05 80
10 05/29/2019 22:24:21 0.02,-137.02 0.53,-134.60 274.54 80
11 05/31/2019 10:46:08 -0.02,-137.02 0.64,-139.87 325.59 80




NCC Satellite Simultaneous Nadir Overpasses (SNOs) Prediction Service
